Fort Nelson, British Columbia

1:01 PM PDT on April 21, 2018 (GMT -0700)
Fort Nelson

Weather History for CYYE - October, 2012

Change the Weather History Date:

Friday, October 26, 2012

  Actual Average Record
Temperature  
Mean Temperature 16 °F -  
Max Temperature 17 °F 19 °F 51 °F (1998)
Min Temperature 14 °F 3 °F 8 °F (1996)
Degree Days  
Heating Degree Days 50    
Moisture  
Dew Point 11 °F    
Average Humidity 79    
Maximum Humidity 86    
Minimum Humidity 68    
Precipitation  
Precipitation 0.04 in 0.03 in - ()
Sea Level Pressure  
Sea Level Pressure 30.53 in    
Wind  
Wind Speed 1 mph ()    
Max Wind Speed 6 mph    
Max Gust Speed -    
Visibility 9.0 miles    
Events Snow    
Averages and records for this station are not official NWS values.
T = Trace of Precipitation, MM = Missing Value Source: Averaged Metar Reports

Daily Weather History Graph

Daily Weather History Graph

Search for Another Location

Airport or City:

Astronomy

Oct. 26, 2012 Rise Set
Actual Time 8:14 AM PDT 5:32 PM PDT
Civil Twilight 7:32 AM PDT 6:14 PM PDT
Nautical Twilight 6:45 AM PDT 7:02 PM PDT
Astronomical Twilight 5:58 AM PDT 7:48 PM PDT
Moon 4:17 PM PDT (10/26) 4:43 AM PDT (10/26)
Length of Visible Light 10h 42m
Length of Day
9h 17m
Waxing Gibbous, 91% of the Moon is Illuminated
Oct 26
Waxing Gibbous
Oct 29
Full
Nov 6
Last Quarter
Nov 13
New
Nov 20
First Quarter

Hourly Weather History & Observations

Time (PDT) Temp. Windchill Dew Point Humidity Pressure Visibility Wind Dir Wind Speed Gust Speed Precip Events Conditions
12:00 AM 15.8 °F - 12.2 °F 86% 30.66 in 15.0 mi Calm Calm - N/A Snow Light Snow
1:00 AM 15.8 °F - 12.2 °F 86% 30.65 in 15.0 mi Calm Calm - N/A Snow Light Snow
2:00 AM 15.8 °F - 12.2 °F 86% 30.63 in 15.0 mi Calm Calm - N/A Snow Light Snow
3:00 AM 15.8 °F - 12.2 °F 86% 30.62 in 15.0 mi Calm Calm - N/A Snow Light Snow
4:00 AM 15.8 °F - 12.2 °F 86% 30.61 in 15.0 mi Calm Calm - N/A Snow Light Snow
5:00 AM 15 °F - 11 °F 78% 30.60 in 15 mi Calm Calm - - Snow Light Snow
5:00 AM 15.8 °F - 10.4 °F 79% 30.60 in 15.0 mi Calm Calm - N/A Snow Light Snow
6:00 AM 15.8 °F - 12.2 °F 86% 30.58 in 15.0 mi Calm Calm - N/A   Overcast
7:00 AM 15.8 °F - 10.4 °F 79% 30.57 in 15.0 mi Calm Calm - N/A   Overcast
7:15 AM - - - N/A% - 15.0 mi Calm Calm - N/A   Unknown
8:00 AM 15.8 °F 10.2 °F 10.4 °F 79% 30.56 in 15.0 mi SSE 3.5 mph - N/A Snow Light Snow
9:00 AM 15.8 °F - 10.4 °F 79% 30.56 in 6.0 mi Calm Calm - N/A Snow Light Snow
10:00 AM 15.8 °F 8.6 °F 10.4 °F 79% 30.56 in 6.0 mi SSE 4.6 mph - N/A Snow Light Snow
11:00 AM 16 °F - 10 °F 69% 30.55 in 6 mi South 4.6 mph - - Snow Light Snow
11:00 AM 15.8 °F 8.6 °F 10.4 °F 79% 30.55 in 6.0 mi South 4.6 mph - N/A Snow Light Snow
12:00 PM 15.8 °F 10.2 °F 10.4 °F 79% 30.53 in 6.0 mi SSE 3.5 mph - N/A Snow Light Snow
1:00 PM 15.8 °F - 8.6 °F 73% 30.52 in 4.0 mi Calm Calm - N/A Snow Light Snow
2:00 PM 17.6 °F 12.3 °F 10.4 °F 73% 30.50 in 4.0 mi ENE 3.5 mph - N/A Snow Light Snow
3:00 PM 17.6 °F 12.3 °F 10.4 °F 73% 30.49 in 4.0 mi NE 3.5 mph - N/A Snow Light Snow
4:00 PM 17.6 °F 10.7 °F 8.6 °F 68% 30.48 in 4.0 mi SW 4.6 mph - N/A Snow Light Snow
5:00 PM 16 °F - 11 °F 70% 30.47 in 4 mi NE 4.6 mph - - Snow Light Snow
5:00 PM 15.8 °F 8.6 °F 10.4 °F 79% 30.47 in 4.0 mi NE 4.6 mph - N/A Snow Light Snow
6:00 PM 15.8 °F 7.2 °F 10.4 °F 79% 30.46 in 4.0 mi East 5.8 mph - N/A Snow Light Snow
7:00 PM 15.8 °F - 10.4 °F 79% 30.46 in 4.0 mi SSE 2.3 mph - N/A Snow Light Snow
8:00 PM 14.0 °F - 8.6 °F 79% 30.45 in 6.0 mi SSE 2.3 mph - N/A Snow Light Snow
9:00 PM 14.0 °F - 10.4 °F 86% 30.45 in 6.0 mi South 2.3 mph - N/A Snow Light Snow
10:00 PM 14.0 °F - 8.6 °F 79% 30.43 in 6.0 mi SW 2.3 mph - N/A Snow Light Snow
11:00 PM 14 °F - 9 °F 73% 30.42 in 6 mi Calm Calm - - Snow Light Snow